Tracking 30056 objects as of 10-Dec-2024
HD Live streaming from Space Station
objects crossing your sky now

SATCOM 2R

Track SATCOM 2R now!
SATCOM 2R is classified as:


NORAD ID: 14328
Int'l Code: 1983-094A
Perigee: 35,990.6 km
Apogee: 36,085.1 km
Inclination: 14.6 °
Period: 1,448.6 minutes
Semi major axis: 42408 km
RCS: 4.023 m2 (large)
Launch date: September 8, 1983
Source: United States (US)
Launch site: AIR FORCE EASTERN TEST RANGE (AFETR)
Your satellite tracking list
Your tracking list is empty




NASA's NSSDC Master Catalog

Two Line Element Set (TLE):
1 14328U 83094A   24343.97132781 -.00000178  00000-0  00000-0 0  9993
2 14328  14.6037 350.0548 0011147  67.4339 114.1651  0.99407220150033
Source of the keplerian elements: AFSPC